Freeport, IL

10:31 AM CST on January 22, 2018 (GMT -0600)
Albertus

Weather History for KFEP - March, 2014

Change the Weather History Date:

Sunday, March 30, 2014

  Actual Average Record
Temperature  
Mean Temperature 44 °F -  
Max Temperature 59 °F 49 °F 85 °F (1986)
Min Temperature 28 °F 32 °F 15 °F (1975)
Degree Days  
Heating Degree Days 22    
Moisture  
Dew Point 33 °F    
Average Humidity 68    
Maximum Humidity 82    
Minimum Humidity 48    
Precipitation  
Precipitation 0.00 in - - ()
Sea Level Pressure  
Sea Level Pressure 30.13 in    
Wind  
Wind Speed 9 mph (SSE)    
Max Wind Speed 20 mph    
Max Gust Speed 26 mph    
Visibility 10 miles    
Events      
Averages and records for this station are not official NWS values.
T = Trace of Precipitation, MM = Missing Value Source: NWS Daily Summary

Daily Weather History Graph

Daily Weather History Graph

Search for Another Location

Airport or City:

Trip Planner

Search our weather history database for the weather conditions in past years. The results will help you decide how hot, cold, wet, or windy it might be!

Date:

Astronomy

Mar. 30, 2014 Rise Set
Actual Time 6:44 AM CDT 7:21 PM CDT
Civil Twilight 6:16 AM CDT 7:50 PM CDT
Nautical Twilight 5:42 AM CDT 8:23 PM CDT
Astronomical Twilight 5:08 AM CDT 8:58 PM CDT
Moon 6:30 AM CDT (3/30) 7:35 PM CDT (3/30)
Length of Visible Light 13h 34m
Length of Day
12h 37m
Waning Crescent, 0% of the Moon is Illuminated
Mar 30
Waning Crescent
Mar 30
New
Apr 7
First Quarter
Apr 15
Full
Apr 22
Last Quarter

Hourly Weather History & Observations

Time (CDT) Temp. Windchill Dew Point Humidity Pressure Visibility Wind Dir Wind Speed Gust Speed Precip Events Conditions
12:15 AM 31.5 °F 26.8 °F 25.5 °F 79% 30.26 in 10.0 mi SSE 4.6 mph - N/A   Clear
12:35 AM 31.5 °F 25.8 °F 24.6 °F 76% 30.26 in 10.0 mi SE 5.8 mph - N/A   Clear
1:15 AM 31.1 °F 26.4 °F 24.1 °F 75% 30.26 in 10.0 mi SE 4.6 mph - N/A   Clear
1:35 AM 31.5 °F 24.9 °F 24.1 °F 74% 30.26 in 10.0 mi SE 6.9 mph - N/A   Clear
1:55 AM 31.5 °F 25.8 °F 24.3 °F 75% 30.26 in 10.0 mi SE 5.8 mph - N/A   Clear
2:15 AM 31.6 °F 27.0 °F 23.2 °F 71% 30.26 in 10.0 mi SSE 4.6 mph - N/A   Clear
2:35 AM 28.0 °F - 21.9 °F 78% 30.26 in 10.0 mi Calm Calm - N/A   Clear
2:55 AM 28.8 °F 25.0 °F 21.2 °F 73% 30.26 in 10.0 mi South 3.5 mph - N/A   Clear
3:15 AM 31.5 °F 26.8 °F 23.0 °F 71% 30.24 in 10.0 mi SSE 4.6 mph - N/A   Clear
3:35 AM 28.9 °F 21.1 °F 22.3 °F 76% 30.23 in 10.0 mi SE 8.1 mph - N/A   Clear
3:55 AM 29.5 °F 23.4 °F 22.6 °F 76% 30.21 in 10.0 mi ESE 5.8 mph - N/A   Clear
4:15 AM 28.9 °F 22.8 °F 23.0 °F 78% 30.21 in 10.0 mi SE 5.8 mph - N/A   Clear
4:35 AM 30.0 °F 23.2 °F 23.0 °F 75% 30.21 in 10.0 mi SSE 6.9 mph - N/A   Clear
4:55 AM 30.7 °F 24.1 °F 23.5 °F 75% 30.21 in 10.0 mi South 6.9 mph - N/A   Clear
5:15 AM 30.2 °F 22.6 °F 23.0 °F 75% 30.22 in 10.0 mi South 8.1 mph - N/A   Clear
5:35 AM 28.4 °F 23.3 °F 22.5 °F 78% 30.23 in 10.0 mi SSE 4.6 mph - N/A   Clear
5:55 AM 28.8 °F 22.6 °F 21.4 °F 74% 30.22 in 10.0 mi SSE 5.8 mph - N/A   Clear
6:15 AM 28.8 °F 22.6 °F 22.3 °F 77% 30.22 in 10.0 mi SSE 5.8 mph - N/A   Clear
6:35 AM 29.1 °F 23.0 °F 22.6 °F 77% 30.22 in 10.0 mi South 5.8 mph - N/A   Clear
6:55 AM 31.5 °F 24.9 °F 25.7 °F 79% 30.22 in 10.0 mi South 6.9 mph - N/A   Clear
7:15 AM 31.5 °F 26.8 °F 26.1 °F 80% 30.22 in 10.0 mi South 4.6 mph - N/A   Clear
7:35 AM 32.0 °F 23.6 °F 27.1 °F 82% 30.22 in 10.0 mi South 10.4 mph - N/A   Clear
7:55 AM 33.8 °F 25.3 °F 27.5 °F 78% 30.21 in 10.0 mi South 11.5 mph - N/A   Clear
8:15 AM 33.8 °F 25.8 °F 26.6 °F 75% 30.23 in 10.0 mi South 10.4 mph - N/A   Clear
8:35 AM 36.1 °F 29.3 °F 28.0 °F 72% 30.23 in 10.0 mi South 9.2 mph - N/A   Clear
8:55 AM 37.9 °F 30.9 °F 29.5 °F 72% 30.23 in 10.0 mi South 10.4 mph - N/A   Clear
9:15 AM 38.7 °F 30.5 °F 29.8 °F 71% 30.22 in 10.0 mi South 13.8 mph - N/A   Clear
9:35 AM 39.4 °F 31.8 °F 30.2 °F 70% 30.21 in 10.0 mi South 12.7 mph - N/A   Clear
9:55 AM 41.2 °F 33.7 °F 31.8 °F 69% 30.21 in 10.0 mi South 13.8 mph - N/A   Clear
10:15 AM 41.2 °F 33.7 °F 30.9 °F 67% 30.21 in 10.0 mi South 13.8 mph - N/A   Clear
10:35 AM 43.7 °F 37.3 °F 32.5 °F 65% 30.21 in 10.0 mi South 12.7 mph - N/A   Clear
10:55 AM 43.7 °F 36.6 °F 32.2 °F 64% 30.20 in 10.0 mi South 15.0 mph - N/A   Clear
11:15 AM 44.8 °F 37.7 °F 32.7 °F 63% 30.19 in 10.0 mi South 16.1 mph - N/A   Clear
11:35 AM 46.4 °F 39.8 °F 33.4 °F 61% 30.18 in 10.0 mi South 16.1 mph - N/A   Clear
11:55 AM 47.1 °F - 34.2 °F 61% 30.18 in 10.0 mi South 15.0 mph - N/A   Clear
12:15 PM 48.4 °F - 34.3 °F 58% 30.17 in 10.0 mi South 17.3 mph - N/A   Clear
12:35 PM 50.0 °F - 36.7 °F 60% 30.16 in 10.0 mi South 17.3 mph 23.0 mph N/A   Clear
12:55 PM 51.4 °F - 37.8 °F 60% 30.15 in 10.0 mi South 16.1 mph 23.0 mph N/A   Clear
1:15 PM 52.7 °F - 39.0 °F 60% 30.14 in 10.0 mi South 18.4 mph 24.2 mph N/A   Clear
1:35 PM 54.0 °F - 39.6 °F 58% 30.13 in 10.0 mi South 19.6 mph 24.2 mph N/A   Clear
1:55 PM 54.0 °F - 39.2 °F 57% 30.12 in 10.0 mi South 13.8 mph 23.0 mph N/A   Clear
2:15 PM 54.1 °F - 39.0 °F 57% 30.11 in 10.0 mi South 18.4 mph 24.2 mph N/A   Clear
2:35 PM 55.9 °F - 39.0 °F 53% 30.09 in 10.0 mi South 19.6 mph 26.5 mph N/A   Clear
2:55 PM 56.5 °F - 39.4 °F 53% 30.09 in 10.0 mi South 17.3 mph - N/A   Clear
3:15 PM 59.0 °F - 40.6 °F 51% 30.08 in 10.0 mi South 15.0 mph 25.3 mph N/A   Clear
3:35 PM 59.0 °F - 39.4 °F 48% 30.07 in 10.0 mi South 13.8 mph 25.3 mph N/A   Clear
3:55 PM 59.0 °F - 39.7 °F 49% 30.07 in 10.0 mi South 17.3 mph 21.9 mph N/A   Clear
4:15 PM 59.0 °F - 40.5 °F 50% 30.05 in 10.0 mi South 19.6 mph - N/A   Clear
4:35 PM 59.0 °F - 39.7 °F 49% 30.04 in 10.0 mi South 17.3 mph - N/A   Clear
4:55 PM 59.0 °F - 40.8 °F 51% 30.04 in 10.0 mi South 18.4 mph - N/A   Clear
5:15 PM 59.0 °F - 41.0 °F 51% 30.04 in 10.0 mi South 13.8 mph - N/A   Clear
5:35 PM 59.0 °F - 42.1 °F 53% 30.03 in 10.0 mi South 17.3 mph - N/A   Clear
5:55 PM 56.5 °F - 41.0 °F 56% 30.02 in 10.0 mi South 16.1 mph - N/A   Clear
6:15 PM 55.4 °F - 41.5 °F 60% 30.01 in 10.0 mi South 11.5 mph - N/A   Clear
6:35 PM 54.1 °F - 41.7 °F 63% 30.01 in 10.0 mi SSE 10.4 mph - N/A   Clear
6:55 PM 54.0 °F - 42.1 °F 64% 30.01 in 10.0 mi SSE 9.2 mph - N/A   Clear
7:15 PM 51.1 °F - 41.2 °F 69% 30.01 in 10.0 mi SSE 8.1 mph - N/A   Clear
7:35 PM 47.5 °F - 38.7 °F 71% 30.01 in 10.0 mi SE 5.8 mph - N/A   Clear
7:55 PM 49.1 °F - 39.6 °F 70% 30.00 in 10.0 mi SSE 9.2 mph - N/A   Clear
8:15 PM 47.3 °F - 38.8 °F 72% 30.00 in 10.0 mi SSE 9.2 mph - N/A   Clear
8:35 PM 46.4 °F 42.4 °F 38.7 °F 74% 30.00 in 10.0 mi SSE 8.1 mph - N/A   Clear
8:55 PM 46.4 °F 42.4 °F 39.4 °F 77% 30.00 in 10.0 mi South 8.1 mph - N/A   Clear
9:15 PM 47.3 °F - 40.1 °F 76% 29.99 in 10.0 mi South 12.7 mph - N/A   Clear
9:35 PM 47.7 °F - 39.7 °F 74% 29.99 in 10.0 mi South 16.1 mph - N/A   Clear
9:55 PM 47.5 °F - 39.9 °F 75% 29.99 in 10.0 mi South 15.0 mph - N/A   Clear
10:15 PM 46.9 °F - 39.7 °F 76% 29.99 in 10.0 mi South 17.3 mph 21.9 mph N/A   Clear
10:35 PM 46.4 °F 39.8 °F 39.7 °F 78% 29.99 in 10.0 mi South 16.1 mph - N/A   Clear
10:55 PM 46.4 °F 40.1 °F 39.9 °F 78% 29.99 in 10.0 mi South 15.0 mph - N/A   Clear
11:15 PM 46.4 °F 40.7 °F 39.6 °F 77% 29.99 in 10.0 mi South 12.7 mph - N/A   Clear
11:35 PM 46.4 °F 41.1 °F 39.6 °F 77% 29.99 in 10.0 mi South 11.5 mph - N/A   Clear
11:55 PM 46.4 °F 41.1 °F 39.4 °F 77% 29.99 in 10.0 mi South 11.5 mph - N/A   Clear